Time,TemperatureF,DewpointF,PressureIn,WindDirection,WindDirectionDegrees,WindSpeedMPH,WindSpeedGustMPH,Humidity,HourlyPrecipIn,Conditions,Clouds,dailyrainin,SolarRadiationWatts/m^2,SoftwareType,DateUTC
2013-03-21 00:02:00,28.8,35.1,29.83,NW,323,5.0,11.0,25,0.00,,,0.00,0.0,meteohub,2013-03-21 04:02:00,
2013-03-21 00:07:00,28.6,35.1,29.83,NNW,334,8.0,14.0,25,0.00,,,0.00,0.0,meteohub,2013-03-21 04:07:00,
2013-03-21 00:12:00,28.2,35.1,29.83,NW,312,6.0,14.0,25,0.00,,,0.00,0.0,meteohub,2013-03-21 04:12:00,
2013-03-21 00:17:00,27.9,35.1,29.83,NW,316,10.0,15.0,25,0.00,,,0.00,0.0,meteohub,2013-03-21 04:17:00,
2013-03-21 00:27:00,27.7,36.0,29.83,West,270,8.0,15.0,26,0.00,,,0.00,0.0,meteohub,2013-03-21 04:27:00,
2013-03-21 00:32:00,27.5,35.1,29.83,WNW,284,2.0,10.0,25,0.00,,,0.00,0.0,meteohub,2013-03-21 04:32:00,
2013-03-21 00:37:00,27.3,36.0,29.82,NNW,346,3.0,10.0,26,0.00,,,0.00,0.0,meteohub,2013-03-21 04:37:00,
2013-03-21 00:42:00,27.3,36.0,29.82,WSW,253,4.0,10.0,26,0.00,,,0.00,0.0,meteohub,2013-03-21 04:42:00,
2013-03-21 00:47:00,27.5,36.0,29.82,NNW,328,0.0,9.0,26,0.00,,,0.00,0.0,meteohub,2013-03-21 04:47:00,
2013-03-21 00:52:00,27.5,36.0,29.82,WSW,256,1.0,9.0,26,0.00,,,0.00,0.0,meteohub,2013-03-21 04:52:00,
2013-03-21 01:02:00,27.3,36.0,29.82,WNW,303,2.0,7.0,26,0.00,,,0.00,0.0,meteohub,2013-03-21 05:02:00,
2013-03-21 01:07:00,27.3,36.0,29.81,WNW,292,4.0,7.0,26,0.00,,,0.00,0.0,meteohub,2013-03-21 05:07:00,
2013-03-21 01:12:00,27.3,36.0,29.81,West,275,5.0,12.0,26,0.00,,,0.00,0.0,meteohub,2013-03-21 05:12:00,
2013-03-21 01:17:00,27.1,35.8,29.81,WNW,286,3.0,12.0,26,0.00,,,0.00,0.0,meteohub,2013-03-21 05:17:00,
2013-03-21 01:22:00,27.0,35.8,29.82,WNW,300,1.0,12.0,26,0.00,,,0.00,0.0,meteohub,2013-03-21 05:22:00,
2013-03-21 01:27:00,27.0,35.8,29.82,West,271,5.0,9.0,26,0.00,,,0.00,0.0,meteohub,2013-03-21 05:27:00,
2013-03-21 01:37:00,26.8,35.8,29.81,West,271,6.0,9.0,26,0.00,,,0.00,0.0,meteohub,2013-03-21 05:37:00,
2013-03-21 01:42:00,26.8,35.8,29.81,NW,321,3.0,8.0,26,0.00,,,0.00,0.0,meteohub,2013-03-21 05:42:00,
2013-03-21 01:47:00,26.8,35.8,29.81,North,355,4.0,9.0,26,0.00,,,0.00,0.0,meteohub,2013-03-21 05:47:00,
2013-03-21 01:52:00,26.6,35.8,29.80,West,262,4.0,9.0,26,0.00,,,0.00,0.0,meteohub,2013-03-21 05:52:00,
2013-03-21 01:57:00,26.4,35.8,29.81,North,350,4.0,9.0,26,0.00,,,0.00,0.0,meteohub,2013-03-21 05:57:00,
2013-03-21 02:02:00,26.4,35.8,29.80,NW,314,5.0,9.0,26,0.00,,,0.00,0.0,meteohub,2013-03-21 06:02:00,
2013-03-21 02:07:00,26.6,35.8,29.81,NW,317,2.0,8.0,26,0.00,,,0.00,0.0,meteohub,2013-03-21 06:07:00,
2013-03-21 02:12:00,26.4,35.8,29.80,West,281,3.0,8.0,26,0.00,,,0.00,0.0,meteohub,2013-03-21 06:12:00,
2013-03-21 02:22:00,26.1,35.8,29.79,NNW,338,1.0,7.0,26,0.00,,,0.00,0.0,meteohub,2013-03-21 06:22:00,
2013-03-21 02:27:00,26.1,35.8,29.79,NNW,343,3.0,6.0,26,0.00,,,0.00,0.0,meteohub,2013-03-21 06:27:00,
2013-03-21 02:32:00,26.1,35.8,29.79,NW,322,3.0,5.0,26,0.00,,,0.00,0.0,meteohub,2013-03-21 06:32:00,
2013-03-21 02:37:00,26.1,35.8,29.79,West,262,8.0,10.0,26,0.00,,,0.00,0.0,meteohub,2013-03-21 06:37:00,
2013-03-21 02:47:00,25.9,35.6,29.79,West,265,3.0,11.0,26,0.00,,,0.00,0.0,meteohub,2013-03-21 06:47:00,
2013-03-21 02:52:00,25.7,35.6,29.78,NW,317,0.0,11.0,26,0.00,,,0.00,0.0,meteohub,2013-03-21 06:52:00,
2013-03-21 03:02:00,25.3,35.6,29.78,NNW,342,1.0,8.0,26,0.00,,,0.00,0.0,meteohub,2013-03-21 07:02:00,
2013-03-21 03:07:00,25.2,35.6,29.78,NNW,329,4.0,9.0,26,0.00,,,0.00,0.0,meteohub,2013-03-21 07:07:00,
2013-03-21 03:12:00,25.2,35.6,29.78,North,355,0.0,11.0,26,0.00,,,0.00,0.0,meteohub,2013-03-21 07:12:00,
2013-03-21 03:17:00,25.0,35.6,29.78,NW,317,1.0,11.0,26,0.00,,,0.00,0.0,meteohub,2013-03-21 07:17:00,
2013-03-21 03:22:00,25.0,35.6,29.78,West,271,3.0,11.0,26,0.00,,,0.00,0.0,meteohub,2013-03-21 07:22:00,
2013-03-21 03:27:00,24.8,35.6,29.78,NNW,343,3.0,9.0,26,0.00,,,0.00,0.0,meteohub,2013-03-21 07:27:00,
2013-03-21 03:32:00,24.6,35.6,29.77,NW,312,1.0,9.0,26,0.00,,,0.00,0.0,meteohub,2013-03-21 07:32:00,
2013-03-21 03:42:00,24.4,35.6,29.77,NNW,333,6.0,9.0,26,0.00,,,0.00,0.0,meteohub,2013-03-21 07:42:00,
2013-03-21 03:47:00,24.3,35.6,29.77,West,280,7.0,9.0,26,0.00,,,0.00,0.0,meteohub,2013-03-21 07:47:00,
2013-03-21 03:57:00,23.7,34.5,29.76,West,269,6.0,12.0,25,0.00,,,0.00,0.0,meteohub,2013-03-21 07:57:00,
2013-03-21 04:02:00,23.7,34.5,29.76,NNW,329,8.0,13.0,25,0.00,,,0.00,0.0,meteohub,2013-03-21 08:02:00,
2013-03-21 04:07:00,23.5,34.5,29.76,SW,219,6.0,16.0,25,0.00,,,0.00,0.0,meteohub,2013-03-21 08:07:00,
2013-03-21 04:12:00,23.4,34.5,29.76,West,266,4.0,16.0,25,0.00,,,0.00,0.0,meteohub,2013-03-21 08:12:00,
2013-03-21 04:17:00,23.4,34.5,29.76,NNW,329,9.0,13.0,25,0.00,,,0.00,0.0,meteohub,2013-03-21 08:17:00,
2013-03-21 04:27:00,23.0,34.5,29.76,WNW,284,4.0,13.0,25,0.00,,,0.00,0.0,meteohub,2013-03-21 08:27:00,
2013-03-21 04:32:00,22.8,34.5,29.76,NW,319,11.0,13.0,25,0.00,,,0.00,0.0,meteohub,2013-03-21 08:32:00,
2013-03-21 04:37:00,22.6,34.5,29.76,West,279,3.0,14.0,25,0.00,,,0.00,0.0,meteohub,2013-03-21 08:37:00,
2013-03-21 04:42:00,22.5,34.5,29.76,WNW,296,4.0,14.0,25,0.00,,,0.00,0.0,meteohub,2013-03-21 08:42:00,
2013-03-21 04:47:00,22.3,34.5,29.76,NW,311,8.0,14.0,25,0.00,,,0.00,0.0,meteohub,2013-03-21 08:47:00,
2013-03-21 04:52:00,22.1,34.5,29.76,West,280,7.0,12.0,25,0.00,,,0.00,0.0,meteohub,2013-03-21 08:52:00,
2013-03-21 04:57:00,21.9,34.5,29.76,WNW,292,4.0,14.0,25,0.00,,,0.00,0.0,meteohub,2013-03-21 08:57:00,
2013-03-21 05:07:00,21.7,34.5,29.76,WSW,250,4.0,14.0,25,0.00,,,0.00,0.0,meteohub,2013-03-21 09:07:00,
2013-03-21 05:12:00,21.6,34.5,29.76,NW,326,2.0,13.0,25,0.00,,,0.00,0.0,meteohub,2013-03-21 09:12:00,
2013-03-21 05:17:00,21.4,34.5,29.76,NW,314,4.0,10.0,25,0.00,,,0.00,0.0,meteohub,2013-03-21 09:17:00,
2013-03-21 05:22:00,21.4,34.5,29.76,SW,234,3.0,10.0,25,0.00,,,0.00,0.0,meteohub,2013-03-21 09:22:00,
2013-03-21 05:27:00,21.0,34.5,29.76,West,275,1.0,10.0,25,0.00,,,0.00,0.0,meteohub,2013-03-21 09:27:00,
2013-03-21 05:32:00,20.8,34.5,29.76,WNW,290,1.0,10.0,25,0.00,,,0.00,0.0,meteohub,2013-03-21 09:32:00,
2013-03-21 05:37:00,20.7,34.5,29.75,NW,309,0.0,8.0,25,0.00,,,0.00,0.0,meteohub,2013-03-21 09:37:00,
2013-03-21 05:42:00,20.5,34.5,29.76,North,10,0.0,8.0,25,0.00,,,0.00,0.0,meteohub,2013-03-21 09:42:00,
2013-03-21 05:47:00,20.3,34.5,29.76,NW,319,0.0,8.0,25,0.00,,,0.00,0.0,meteohub,2013-03-21 09:47:00,
2013-03-21 05:52:00,19.9,34.5,29.76,WNW,291,0.0,4.0,25,0.00,,,0.00,0.0,meteohub,2013-03-21 09:52:00,
2013-03-21 06:02:00,19.9,33.4,29.76,West,278,0.0,6.0,24,0.00,,,0.00,0.0,meteohub,2013-03-21 10:02:00,
2013-03-21 06:07:00,19.8,34.5,29.76,North,0,2.0,6.0,25,0.00,,,0.00,0.0,meteohub,2013-03-21 10:07:00,
2013-03-21 06:12:00,19.8,34.5,29.77,NW,319,0.0,6.0,25,0.00,,,0.00,0.0,meteohub,2013-03-21 10:12:00,
2013-03-21 06:17:00,19.8,35.6,29.77,WNW,301,2.0,6.0,26,0.00,,,0.00,0.0,meteohub,2013-03-21 10:17:00,
2013-03-21 06:22:00,19.8,34.5,29.77,NW,304,3.0,6.0,25,0.00,,,0.00,0.0,meteohub,2013-03-21 10:22:00,
2013-03-21 06:27:00,19.8,33.4,29.77,WNW,282,1.0,11.0,24,0.00,,,0.00,0.0,meteohub,2013-03-21 10:27:00,
2013-03-21 06:32:00,19.8,34.5,29.78,WNW,296,0.0,11.0,25,0.00,,,0.00,0.0,meteohub,2013-03-21 10:32:00,
2013-03-21 06:37:00,19.6,35.6,29.78,West,259,5.0,11.0,26,0.00,,,0.00,0.0,meteohub,2013-03-21 10:37:00,
2013-03-21 06:47:00,19.6,34.5,29.78,WNW,286,6.0,10.0,25,0.00,,,0.00,0.0,meteohub,2013-03-21 10:47:00,
2013-03-21 06:57:00,19.4,34.5,29.77,WNW,292,6.0,11.0,25,0.00,,,0.00,0.0,meteohub,2013-03-21 10:57:00,
2013-03-21 07:02:00,19.2,33.4,29.77,WNW,296,3.0,11.0,24,0.00,,,0.00,0.0,meteohub,2013-03-21 11:02:00,
2013-03-21 07:07:00,19.2,33.4,29.77,West,275,3.0,11.0,24,0.00,,,0.00,0.0,meteohub,2013-03-21 11:07:00,
2013-03-21 07:17:00,18.9,33.4,29.77,NNW,330,2.0,8.0,24,0.00,,,0.00,0.0,meteohub,2013-03-21 11:17:00,
2013-03-21 07:22:00,18.9,33.4,29.78,NW,321,0.0,11.0,24,0.00,,,0.00,0.0,meteohub,2013-03-21 11:22:00,
2013-03-21 07:27:00,18.7,33.4,29.78,West,273,0.0,11.0,24,0.00,,,0.00,0.0,meteohub,2013-03-21 11:27:00,
2013-03-21 07:32:00,18.3,33.4,29.78,NNW,334,0.0,10.0,24,0.00,,,0.00,5.0,meteohub,2013-03-21 11:32:00,
2013-03-21 07:42:00,18.3,33.4,29.78,West,265,9.0,9.0,24,0.00,,,0.00,11.0,meteohub,2013-03-21 11:42:00,
2013-03-21 07:52:00,18.3,33.4,29.78,SW,229,0.0,12.0,24,0.00,,,0.00,16.0,meteohub,2013-03-21 11:52:00,
2013-03-21 08:02:00,18.3,34.5,29.78,NW,318,0.0,9.0,25,0.00,,,0.00,25.0,meteohub,2013-03-21 12:02:00,
2013-03-21 08:07:00,18.3,33.8,29.78,NNW,329,0.0,9.0,24,0.00,,,0.00,35.0,meteohub,2013-03-21 12:07:00,
2013-03-21 08:12:00,18.3,33.4,29.78,NW,306,4.0,9.0,24,0.00,,,0.00,49.0,meteohub,2013-03-21 12:12:00,
2013-03-21 08:22:00,18.7,33.4,29.78,WNW,293,4.0,9.0,24,0.00,,,0.00,84.0,meteohub,2013-03-21 12:22:00,
2013-03-21 08:32:00,18.9,34.5,29.79,NW,310,7.0,16.0,25,0.00,,,0.00,123.0,meteohub,2013-03-21 12:32:00,
2013-03-21 08:37:00,19.2,34.5,29.79,West,265,4.0,16.0,25,0.00,,,0.00,142.0,meteohub,2013-03-21 12:37:00,
2013-03-21 08:42:00,19.2,34.5,29.79,West,261,9.0,16.0,25,0.00,,,0.00,163.0,meteohub,2013-03-21 12:42:00,
2013-03-21 08:52:00,19.6,34.9,29.80,North,5,1.0,14.0,25,0.00,,,0.00,211.0,meteohub,2013-03-21 12:52:00,
2013-03-21 08:57:00,19.8,34.9,29.79,WNW,296,6.0,14.0,25,0.00,,,0.00,236.0,meteohub,2013-03-21 12:57:00,
2013-03-21 09:02:00,19.9,35.1,29.80,NE,49,2.0,14.0,25,0.00,,,0.00,257.0,meteohub,2013-03-21 13:02:00,
2013-03-21 09:07:00,20.1,35.1,29.80,WNW,291,6.0,9.0,25,0.00,,,0.00,276.0,meteohub,2013-03-21 13:07:00,
2013-03-21 09:12:00,20.3,35.1,29.80,West,259,3.0,9.0,25,0.00,,,0.00,294.0,meteohub,2013-03-21 13:12:00,
2013-03-21 09:22:00,20.5,35.1,29.80,NW,325,6.0,13.0,25,0.00,,,0.00,332.0,meteohub,2013-03-21 13:22:00,
2013-03-21 09:27:00,20.7,35.1,29.80,NNW,345,5.0,14.0,25,0.00,,,0.00,352.0,meteohub,2013-03-21 13:27:00,
2013-03-21 09:32:00,20.7,35.1,29.80,NW,323,7.0,14.0,25,0.00,,,0.00,369.0,meteohub,2013-03-21 13:32:00,
2013-03-21 09:37:00,21.0,35.1,29.80,West,263,8.0,14.0,25,0.00,,,0.00,390.0,meteohub,2013-03-21 13:37:00,
2013-03-21 09:47:00,21.4,34.2,29.80,NW,309,3.0,12.0,24,0.00,,,0.00,425.0,meteohub,2013-03-21 13:47:00,
2013-03-21 09:52:00,21.4,34.2,29.80,WNW,288,4.0,15.0,24,0.00,,,0.00,445.0,meteohub,2013-03-21 13:52:00,
2013-03-21 09:57:00,21.6,34.2,29.80,West,271,4.0,15.0,24,0.00,,,0.00,462.0,meteohub,2013-03-21 13:57:00,
2013-03-21 10:02:00,21.7,34.3,29.80,West,263,6.0,13.0,24,0.00,,,0.00,482.0,meteohub,2013-03-21 14:02:00,
2013-03-21 10:07:00,21.7,34.3,29.80,WSW,247,3.0,15.0,24,0.00,,,0.00,501.0,meteohub,2013-03-21 14:07:00,
2013-03-21 10:17:00,22.3,34.5,29.81,West,273,4.0,16.0,24,0.00,,,0.00,533.0,meteohub,2013-03-21 14:17:00,
2013-03-21 10:22:00,22.5,34.5,29.81,WNW,298,5.0,16.0,24,0.00,,,0.00,552.0,meteohub,2013-03-21 14:22:00,
2013-03-21 10:32:00,22.6,33.4,29.82,NW,312,7.0,19.0,23,0.00,,,0.00,585.0,meteohub,2013-03-21 14:32:00,
2013-03-21 10:37:00,22.6,32.4,29.81,NW,315,9.0,19.0,22,0.00,,,0.00,601.0,meteohub,2013-03-21 14:37:00,
2013-03-21 10:42:00,22.6,32.4,29.82,WSW,248,6.0,19.0,22,0.00,,,0.00,619.0,meteohub,2013-03-21 14:42:00,
2013-03-21 10:47:00,23.2,31.3,29.81,West,277,13.0,16.0,21,0.00,,,0.00,635.0,meteohub,2013-03-21 14:47:00,
2013-03-21 10:52:00,23.4,31.3,29.81,NNW,329,11.0,16.0,21,0.00,,,0.00,647.0,meteohub,2013-03-21 14:52:00,
2013-03-21 10:57:00,23.4,30.9,29.81,NW,325,6.0,17.0,21,0.00,,,0.00,663.0,meteohub,2013-03-21 14:57:00,
2013-03-21 11:02:00,23.5,30.9,29.82,WNW,285,5.0,17.0,21,0.00,,,0.00,675.0,meteohub,2013-03-21 15:02:00,
2013-03-21 11:12:00,23.5,30.9,29.82,West,275,6.0,16.0,21,0.00,,,0.00,703.0,meteohub,2013-03-21 15:12:00,
2013-03-21 11:17:00,23.7,32.4,29.82,WNW,300,9.0,14.0,22,0.00,,,0.00,715.0,meteohub,2013-03-21 15:17:00,
2013-03-21 11:27:00,24.3,32.4,29.83,West,278,9.0,17.0,22,0.00,,,0.00,740.0,meteohub,2013-03-21 15:27:00,
2013-03-21 11:32:00,24.6,32.5,29.82,WNW,284,6.0,17.0,22,0.00,,,0.00,752.0,meteohub,2013-03-21 15:32:00,
2013-03-21 11:37:00,25.0,33.8,29.83,NNW,328,8.0,16.0,23,0.00,,,0.00,766.0,meteohub,2013-03-21 15:37:00,
2013-03-21 11:42:00,25.2,32.7,29.83,NNE,28,3.0,18.0,22,0.00,,,0.00,779.0,meteohub,2013-03-21 15:42:00,
2013-03-21 11:47:00,25.0,32.7,29.83,WSW,257,13.0,18.0,22,0.00,,,0.00,788.0,meteohub,2013-03-21 15:47:00,
2013-03-21 11:57:00,25.7,34.0,29.83,West,269,11.0,22.0,23,0.00,,,0.00,809.0,meteohub,2013-03-21 15:57:00,
2013-03-21 12:02:00,25.9,34.0,29.83,West,268,2.0,22.0,23,0.00,,,0.00,816.0,meteohub,2013-03-21 16:02:00,
2013-03-21 12:07:00,26.2,32.9,29.83,WNW,295,10.0,18.0,22,0.00,,,0.00,826.0,meteohub,2013-03-21 16:07:00,
2013-03-21 12:12:00,25.7,32.9,29.84,NW,313,6.0,18.0,22,0.00,,,0.00,835.0,meteohub,2013-03-21 16:12:00,
2013-03-21 12:17:00,25.9,32.9,29.83,NW,323,9.0,18.0,22,0.00,,,0.00,844.0,meteohub,2013-03-21 16:17:00,
2013-03-21 12:22:00,26.1,33.1,29.84,WNW,294,3.0,18.0,22,0.00,,,0.00,851.0,meteohub,2013-03-21 16:22:00,
2013-03-21 12:27:00,26.6,33.1,29.84,WNW,284,15.0,17.0,22,0.00,,,0.00,856.0,meteohub,2013-03-21 16:27:00,
2013-03-21 12:32:00,26.4,33.1,29.83,WNW,284,14.0,16.0,22,0.00,,,0.00,863.0,meteohub,2013-03-21 16:32:00,
2013-03-21 12:42:00,27.1,33.1,29.84,WNW,285,12.0,17.0,22,0.00,,,0.00,877.0,meteohub,2013-03-21 16:42:00,
2013-03-21 12:47:00,28.2,34.3,29.84,West,260,6.0,17.0,23,0.00,,,0.00,882.0,meteohub,2013-03-21 16:47:00,
2013-03-21 12:57:00,27.3,34.3,29.84,WNW,290,5.0,15.0,23,0.00,,,0.00,891.0,meteohub,2013-03-21 16:57:00,
2013-03-21 13:02:00,28.6,34.3,29.83,NW,314,6.0,15.0,23,0.00,,,0.00,896.0,meteohub,2013-03-21 17:02:00,
2013-03-21 13:07:00,28.2,34.3,29.83,NW,304,3.0,16.0,23,0.00,,,0.00,900.0,meteohub,2013-03-21 17:07:00,
2013-03-21 13:17:00,28.6,34.3,29.83,NW,309,4.0,17.0,23,0.01,,,0.01,905.0,meteohub,2013-03-21 17:17:00,
2013-03-21 13:22:00,28.9,33.4,29.83,NNW,346,8.0,17.0,22,0.01,,,0.01,907.0,meteohub,2013-03-21 17:22:00,
2013-03-21 13:32:00,29.1,33.4,29.83,WNW,302,3.0,18.0,22,0.01,,,0.01,909.0,meteohub,2013-03-21 17:32:00,
2013-03-21 13:37:00,29.7,33.4,29.83,West,268,3.0,18.0,22,0.01,,,0.01,914.0,meteohub,2013-03-21 17:37:00,
2013-03-21 13:47:00,29.8,33.4,29.83,North,5,12.0,16.0,22,0.01,,,0.01,912.0,meteohub,2013-03-21 17:47:00,
2013-03-21 13:57:00,30.2,33.4,29.83,WSW,254,8.0,14.0,22,0.01,,,0.01,912.0,meteohub,2013-03-21 17:57:00,
2013-03-21 14:07:00,29.7,33.4,29.83,West,267,4.0,18.0,22,0.01,,,0.01,911.0,meteohub,2013-03-21 18:07:00,
2013-03-21 14:17:00,30.0,33.4,29.82,West,275,5.0,17.0,22,0.00,,,0.01,904.0,meteohub,2013-03-21 18:17:00,
2013-03-21 14:22:00,30.4,32.4,29.83,West,271,11.0,17.0,21,0.00,,,0.01,902.0,meteohub,2013-03-21 18:22:00,
2013-03-21 14:27:00,30.6,32.4,29.82,West,266,7.0,15.0,21,0.00,,,0.01,898.0,meteohub,2013-03-21 18:27:00,
2013-03-21 14:32:00,30.4,32.4,29.82,West,280,4.0,16.0,21,0.00,,,0.01,893.0,meteohub,2013-03-21 18:32:00,
2013-03-21 14:37:00,30.7,32.4,29.82,NW,313,15.0,18.0,21,0.00,,,0.01,891.0,meteohub,2013-03-21 18:37:00,
2013-03-21 14:47:00,30.6,32.4,29.82,SW,227,6.0,16.0,21,0.00,,,0.01,881.0,meteohub,2013-03-21 18:47:00,
2013-03-21 14:57:00,31.3,32.4,29.82,SSW,211,4.0,17.0,21,0.00,,,0.01,870.0,meteohub,2013-03-21 18:57:00,
2013-03-21 15:02:00,31.5,32.4,29.82,WNW,283,13.0,17.0,21,0.00,,,0.01,863.0,meteohub,2013-03-21 19:02:00,
2013-03-21 15:07:00,31.3,32.4,29.82,NNW,336,8.0,22.0,21,0.00,,,0.01,854.0,meteohub,2013-03-21 19:07:00,
2013-03-21 15:12:00,31.1,31.1,29.82,WNW,284,5.0,22.0,20,0.00,,,0.01,846.0,meteohub,2013-03-21 19:12:00,
2013-03-21 15:17:00,31.3,31.1,29.83,WNW,299,7.0,22.0,20,0.00,,,0.01,837.0,meteohub,2013-03-21 19:17:00,
2013-03-21 15:22:00,31.3,32.4,29.83,North,355,6.0,21.0,21,0.00,,,0.01,830.0,meteohub,2013-03-21 19:22:00,
2013-03-21 15:32:00,31.5,32.4,29.83,WNW,290,16.0,18.0,21,0.00,,,0.01,812.0,meteohub,2013-03-21 19:32:00,
2013-03-21 15:37:00,31.3,32.4,29.83,WNW,296,7.0,22.0,21,0.00,,,0.01,802.0,meteohub,2013-03-21 19:37:00,
2013-03-21 15:42:00,32.0,32.4,29.83,WNW,297,11.0,22.0,21,0.00,,,0.01,793.0,meteohub,2013-03-21 19:42:00,
2013-03-21 15:52:00,32.2,32.4,29.83,SW,229,7.0,18.0,21,0.00,,,0.01,766.0,meteohub,2013-03-21 19:52:00,
2013-03-21 15:57:00,32.2,32.4,29.83,West,259,5.0,21.0,21,0.00,,,0.01,756.0,meteohub,2013-03-21 19:57:00,
2013-03-21 16:02:00,32.4,32.4,29.83,WSW,247,4.0,21.0,21,0.00,,,0.01,747.0,meteohub,2013-03-21 20:02:00,
2013-03-21 16:07:00,32.5,32.4,29.83,WSW,256,10.0,21.0,21,0.00,,,0.01,733.0,meteohub,2013-03-21 20:07:00,
2013-03-21 16:12:00,32.4,32.4,29.83,West,265,8.0,19.0,21,0.00,,,0.01,719.0,meteohub,2013-03-21 20:12:00,
2013-03-21 16:17:00,32.2,32.4,29.83,NNW,333,6.0,19.0,21,0.00,,,0.01,707.0,meteohub,2013-03-21 20:17:00,
2013-03-21 16:22:00,32.7,33.6,29.83,NW,310,5.0,19.0,22,0.00,,,0.01,689.0,meteohub,2013-03-21 20:22:00,
2013-03-21 16:27:00,32.5,33.6,29.84,NW,315,10.0,17.0,22,0.00,,,0.01,677.0,meteohub,2013-03-21 20:27:00,
2013-03-21 16:32:00,32.7,32.4,29.84,NW,313,13.0,17.0,21,0.00,,,0.01,663.0,meteohub,2013-03-21 20:32:00,
2013-03-21 16:42:00,32.2,32.2,29.84,NW,310,7.0,17.0,21,0.00,,,0.01,631.0,meteohub,2013-03-21 20:42:00,
2013-03-21 16:52:00,33.1,32.0,29.84,WSW,249,2.0,19.0,21,0.00,,,0.01,598.0,meteohub,2013-03-21 20:52:00,
2013-03-21 17:02:00,32.5,32.0,29.84,West,275,7.0,14.0,21,0.00,,,0.01,566.0,meteohub,2013-03-21 21:02:00,
2013-03-21 17:07:00,32.2,31.8,29.84,East,87,6.0,18.0,21,0.00,,,0.01,552.0,meteohub,2013-03-21 21:07:00,
2013-03-21 17:12:00,32.4,31.8,29.84,NW,306,4.0,18.0,21,0.00,,,0.01,534.0,meteohub,2013-03-21 21:12:00,
2013-03-21 17:17:00,32.7,31.8,29.84,SW,236,6.0,16.0,21,0.00,,,0.01,519.0,meteohub,2013-03-21 21:17:00,
2013-03-21 17:22:00,32.9,31.6,29.84,South,175,2.0,16.0,21,0.00,,,0.01,499.0,meteohub,2013-03-21 21:22:00,
2013-03-21 17:27:00,33.3,31.6,29.85,West,281,9.0,12.0,21,0.00,,,0.01,482.0,meteohub,2013-03-21 21:27:00,
2013-03-21 17:37:00,33.1,31.6,29.85,North,5,0.0,15.0,21,0.00,,,0.01,441.0,meteohub,2013-03-21 21:37:00,
2013-03-21 17:42:00,33.4,31.5,29.84,West,271,11.0,15.0,21,0.00,,,0.01,427.0,meteohub,2013-03-21 21:42:00,
2013-03-21 17:47:00,33.3,31.5,29.85,NNW,344,2.0,16.0,21,0.00,,,0.01,406.0,meteohub,2013-03-21 21:47:00,
2013-03-21 17:52:00,32.9,31.5,29.84,WNW,282,14.0,16.0,21,0.00,,,0.01,387.0,meteohub,2013-03-21 21:52:00,
2013-03-21 17:57:00,32.5,31.5,29.85,West,268,2.0,17.0,21,0.00,,,0.01,367.0,meteohub,2013-03-21 21:57:00,
2013-03-21 18:02:00,32.4,31.5,29.85,WSW,254,2.0,17.0,21,0.00,,,0.01,348.0,meteohub,2013-03-21 22:02:00,
2013-03-21 18:12:00,32.4,31.5,29.85,South,175,2.0,15.0,21,0.00,,,0.01,309.0,meteohub,2013-03-21 22:12:00,
2013-03-21 18:22:00,32.2,31.3,29.85,North,9,1.0,15.0,21,0.00,,,0.01,272.0,meteohub,2013-03-21 22:22:00,
2013-03-21 18:32:00,32.0,31.3,29.85,WSW,247,5.0,13.0,21,0.00,,,0.01,227.0,meteohub,2013-03-21 22:32:00,
2013-03-21 18:37:00,31.8,31.3,29.86,SSW,207,3.0,13.0,21,0.00,,,0.01,202.0,meteohub,2013-03-21 22:37:00,
2013-03-21 18:42:00,31.8,31.3,29.86,WSW,255,4.0,13.0,21,0.00,,,0.01,181.0,meteohub,2013-03-21 22:42:00,
2013-03-21 18:47:00,31.6,31.3,29.86,WSW,251,9.0,12.0,21,0.00,,,0.01,158.0,meteohub,2013-03-21 22:47:00,
2013-03-21 18:52:00,31.5,31.3,29.86,NW,319,8.0,12.0,21,0.00,,,0.01,137.0,meteohub,2013-03-21 22:52:00,
2013-03-21 19:02:00,30.9,30.9,29.86,West,261,9.0,13.0,21,0.00,,,0.01,95.0,meteohub,2013-03-21 23:02:00,
2013-03-21 19:07:00,30.9,30.9,29.86,NW,317,3.0,13.0,21,0.00,,,0.01,76.0,meteohub,2013-03-21 23:07:00,
2013-03-21 19:12:00,30.7,30.9,29.86,SW,234,4.0,16.0,21,0.00,,,0.01,56.0,meteohub,2013-03-21 23:12:00,
2013-03-21 19:17:00,30.6,32.2,29.87,WSW,258,5.0,16.0,22,0.00,,,0.01,32.0,meteohub,2013-03-21 23:17:00,
2013-03-21 19:22:00,30.4,32.2,29.87,SSW,192,7.0,16.0,22,0.00,,,0.01,25.0,meteohub,2013-03-21 23:22:00,
2013-03-21 19:32:00,29.8,32.2,29.87,WNW,290,4.0,12.0,22,0.00,,,0.01,14.0,meteohub,2013-03-21 23:32:00,
2013-03-21 19:42:00,29.5,32.2,29.88,NW,311,5.0,12.0,22,0.00,,,0.01,7.0,meteohub,2013-03-21 23:42:00,
2013-03-21 19:47:00,29.5,32.2,29.88,WSW,254,6.0,16.0,22,0.00,,,0.01,0.0,meteohub,2013-03-21 23:47:00,
2013-03-21 19:52:00,29.1,32.2,29.88,WNW,282,9.0,16.0,22,0.00,,,0.01,0.0,meteohub,2013-03-21 23:52:00,
2013-03-21 19:57:00,28.9,32.0,29.88,WNW,295,6.0,16.0,22,0.00,,,0.01,0.0,meteohub,2013-03-21 23:57:00,
2013-03-21 20:02:00,28.9,32.0,29.88,West,269,7.0,12.0,22,0.00,,,0.01,0.0,meteohub,2013-03-22 00:02:00,
2013-03-21 20:12:00,28.6,32.0,29.88,NW,313,10.0,11.0,22,0.00,,,0.01,0.0,meteohub,2013-03-22 00:12:00,
2013-03-21 20:17:00,28.6,32.0,29.88,WNW,300,1.0,12.0,22,0.00,,,0.01,0.0,meteohub,2013-03-22 00:17:00,
2013-03-21 20:22:00,28.4,32.0,29.89,West,275,0.0,12.0,22,0.00,,,0.01,0.0,meteohub,2013-03-22 00:22:00,
2013-03-21 20:32:00,28.0,32.0,29.90,WSW,238,1.0,12.0,22,0.00,,,0.01,0.0,meteohub,2013-03-22 00:32:00,
2013-03-21 20:37:00,28.0,32.0,29.89,SW,232,4.0,12.0,22,0.00,,,0.01,0.0,meteohub,2013-03-22 00:37:00,
2013-03-21 20:42:00,28.0,32.0,29.90,North,9,5.0,12.0,22,0.00,,,0.01,0.0,meteohub,2013-03-22 00:42:00,
2013-03-21 20:47:00,28.0,32.0,29.90,WNW,284,3.0,11.0,22,0.00,,,0.01,0.0,meteohub,2013-03-22 00:47:00,
2013-03-21 20:52:00,28.0,32.0,29.90,NW,323,3.0,10.0,22,0.00,,,0.01,0.0,meteohub,2013-03-22 00:52:00,
2013-03-21 20:57:00,28.0,32.0,29.91,NNW,327,1.0,10.0,22,0.00,,,0.01,0.0,meteohub,2013-03-22 00:57:00,
2013-03-21 21:07:00,27.9,32.0,29.91,NNW,334,1.0,11.0,22,0.00,,,0.01,0.0,meteohub,2013-03-22 01:07:00,
2013-03-21 21:12:00,27.9,32.0,29.91,West,271,2.0,11.0,22,0.00,,,0.01,0.0,meteohub,2013-03-22 01:12:00,
2013-03-21 21:17:00,27.9,32.0,29.91,North,355,3.0,11.0,22,0.00,,,0.01,0.0,meteohub,2013-03-22 01:17:00,
2013-03-21 21:22:00,27.9,32.0,29.91,North,5,2.0,12.0,22,0.00,,,0.01,0.0,meteohub,2013-03-22 01:22:00,
2013-03-21 21:27:00,27.7,31.8,29.91,North,5,0.0,12.0,22,0.00,,,0.01,0.0,meteohub,2013-03-22 01:27:00,
2013-03-21 21:32:00,27.5,31.8,29.91,ENE,63,2.0,8.0,22,0.00,,,0.01,0.0,meteohub,2013-03-22 01:32:00,
2013-03-21 21:37:00,27.7,31.8,29.91,NNE,19,5.0,8.0,22,0.00,,,0.01,0.0,meteohub,2013-03-22 01:37:00,
2013-03-21 21:42:00,27.7,31.8,29.91,NW,321,4.0,9.0,22,0.00,,,0.01,0.0,meteohub,2013-03-22 01:42:00,
2013-03-21 21:47:00,27.7,31.8,29.92,North,10,5.0,9.0,22,0.00,,,0.01,0.0,meteohub,2013-03-22 01:47:00,
2013-03-21 21:52:00,27.5,31.8,29.92,North,355,5.0,10.0,22,0.00,,,0.01,0.0,meteohub,2013-03-22 01:52:00,
2013-03-21 22:02:00,27.3,31.8,29.92,NNW,347,3.0,10.0,22,0.00,,,0.01,0.0,meteohub,2013-03-22 02:02:00,
2013-03-21 22:07:00,27.3,31.8,29.92,WNW,288,5.0,9.0,22,0.00,,,0.01,0.0,meteohub,2013-03-22 02:07:00,
2013-03-21 22:12:00,27.1,32.9,29.93,NW,320,4.0,9.0,23,0.00,,,0.01,0.0,meteohub,2013-03-22 02:12:00,
2013-03-21 22:17:00,27.0,31.8,29.93,NW,314,3.0,9.0,22,0.00,,,0.01,0.0,meteohub,2013-03-22 02:17:00,
2013-03-21 22:22:00,27.1,31.8,29.93,NNW,330,4.0,9.0,22,0.00,,,0.01,0.0,meteohub,2013-03-22 02:22:00,
2013-03-21 22:27:00,27.1,32.9,29.93,NNW,331,4.0,9.0,23,0.00,,,0.01,0.0,meteohub,2013-03-22 02:27:00,
2013-03-21 22:32:00,27.1,32.9,29.93,WNW,294,5.0,9.0,23,0.00,,,0.01,0.0,meteohub,2013-03-22 02:32:00,
2013-03-21 22:42:00,27.0,32.7,29.93,WNW,284,6.0,8.0,23,0.00,,,0.01,0.0,meteohub,2013-03-22 02:42:00,
2013-03-21 22:47:00,27.0,32.7,29.93,NW,314,2.0,8.0,23,0.00,,,0.01,0.0,meteohub,2013-03-22 02:47:00,
2013-03-21 22:57:00,26.6,31.8,29.93,NNW,337,3.0,9.0,22,0.00,,,0.01,0.0,meteohub,2013-03-22 02:57:00,
2013-03-21 23:02:00,26.4,32.9,29.94,NW,313,6.0,9.0,23,0.00,,,0.01,0.0,meteohub,2013-03-22 03:02:00,
2013-03-21 23:07:00,26.4,32.7,29.94,NNW,342,4.0,9.0,23,0.00,,,0.01,0.0,meteohub,2013-03-22 03:07:00,
2013-03-21 23:12:00,26.4,32.7,29.93,West,279,5.0,9.0,23,0.00,,,0.01,0.0,meteohub,2013-03-22 03:12:00,
2013-03-21 23:22:00,26.4,32.7,29.94,North,0,0.0,10.0,23,0.00,,,0.01,0.0,meteohub,2013-03-22 03:22:00,
2013-03-21 23:27:00,26.4,32.7,29.94,West,273,1.0,10.0,23,0.00,,,0.01,0.0,meteohub,2013-03-22 03:27:00,
2013-03-21 23:32:00,26.4,32.7,29.94,WNW,295,3.0,8.0,23,0.00,,,0.01,0.0,meteohub,2013-03-22 03:32:00,
2013-03-21 23:42:00,26.1,32.7,29.94,West,274,0.0,8.0,23,0.00,,,0.01,0.0,meteohub,2013-03-22 03:42:00,
2013-03-21 23:47:00,25.5,32.7,29.94,West,275,0.0,6.0,23,0.00,,,0.01,0.0,meteohub,2013-03-22 03:47:00,
2013-03-21 23:57:00,25.0,32.7,29.95,North,355,0.0,2.0,23,0.00,,,0.01,0.0,meteohub,2013-03-22 03:57:00,